Weather History for Harlan, KY

Change the Weather History Date:

Friday, February 14, 2014

  Actual Average (KLOZ) Record (KLOZ)
Temperature  
Mean Temperature 36 °F 39 °F  
Max Temperature 50 °F 49 °F 70 °F (1959)
Min Temperature 23 °F 29 °F 3 °F (1960)
Degree Days  
Heating Degree Days 28 26  
Month to date heating degree days 379  
Since 1 July heating degree days 2942  
Cooling Degree Days 0 0  
Month to date cooling degree days 0  
Year to date cooling degree days 0  
Moisture  
Dew Point 29 °F    
Average Humidity 78    
Maximum Humidity 100    
Minimum Humidity 43    
Precipitation  
Precipitation 0.00 in 0.14 in 1.45 in (1970)
Month to date precipitation 1.82  
Year to date precipitation 5.36  
Sea Level Pressure  
Sea Level Pressure 29.73 in    
Wind  
Wind Speed 1 mph (SSE)    
Max Wind Speed 9 mph    
Max Gust Speed 16 mph    
Visibility 8 miles    
Events      
T = Trace of Precipitation, MM = Missing Value Source: NWS Daily Summary

Daily Weather History Graph

Daily Weather History Graph

Search for Another Location

Airport:

Trip Planner

Search our weather history database for the weather conditions in past years. The results will help you decide how hot, cold, wet, or windy it might be!

Date:

Astronomy

Feb. 14, 2014 Rise Set
Actual Time 7:22 AM EST 6:12 PM EST
Civil Twilight 6:56 AM EST 6:39 PM EST
Nautical Twilight 6:26 AM EST 7:09 PM EST
Astronomical Twilight 5:55 AM EST 7:39 PM EST
Moon 6:14 PM EST (2/14) 6:50 AM EST (2/14)
Length of Visible Light 11h 42m
Length of Day
10h 49m
Full, 100% of the Moon is Illuminated
Feb 14
Full
Feb 14
Full
Feb 22
Last Quarter
Mar 1
New
Mar 8
First Quarter

Hourly Weather History & Observations

Time (EST) Temp. Windchill Dew Point Humidity Pressure Visibility Wind Dir Wind Speed Gust Speed Precip Events Conditions
12:15 AM 26.6 °F - 26.6 °F 100% 29.77 in 2.0 mi Calm Calm - N/A   Overcast
12:35 AM 26.6 °F - 26.6 °F 100% 29.76 in 0.2 mi Calm Calm - N/A   Overcast
12:55 AM 26.6 °F - 26.6 °F 100% 29.77 in 2.0 mi Calm Calm - N/A   Overcast
1:15 AM 26.6 °F - 24.8 °F 93% 29.77 in 3.0 mi Calm Calm - N/A   Scattered Clouds
1:35 AM 26.6 °F - 24.8 °F 93% 29.77 in 4.0 mi Calm Calm - N/A   Clear
1:55 AM 26.6 °F - 24.8 °F 93% 29.77 in 7.0 mi Calm Calm - N/A   Clear
2:15 AM 26.6 °F - 24.8 °F 93% 29.76 in 7.0 mi Calm Calm - N/A   Clear
2:35 AM 24.8 °F - 23.0 °F 93% 29.77 in 5.0 mi Calm Calm - N/A   Clear
2:55 AM 26.6 °F - 24.8 °F 93% 29.76 in 10.0 mi Calm Calm - N/A   Clear
3:15 AM 26.6 °F 21.2 °F 24.8 °F 93% 29.76 in 10.0 mi East 4.6 mph - N/A   Clear
3:35 AM 26.6 °F 22.6 °F 26.6 °F 100% 29.75 in 10.0 mi East 3.5 mph - N/A   Clear
3:55 AM 28.4 °F 19.7 °F 26.6 °F 93% 29.75 in 10.0 mi East 9.2 mph - N/A   Clear
4:15 AM 26.6 °F 22.6 °F 23.0 °F 86% 29.75 in 7.0 mi ESE 3.5 mph - N/A   Clear
4:35 AM 26.6 °F - 24.8 °F 93% 29.75 in 7.0 mi Calm Calm - N/A   Clear
4:55 AM 24.8 °F - 23.0 °F 93% 29.75 in 10.0 mi Calm Calm - N/A   Clear
5:15 AM 23.0 °F - 23.0 °F 100% 29.76 in 7.0 mi Calm Calm - N/A   Clear
5:35 AM 23.0 °F - 23.0 °F 100% 29.77 in 7.0 mi Calm Calm - N/A   Clear
5:55 AM 24.8 °F - 23.0 °F 93% 29.77 in 10.0 mi Calm Calm - N/A   Clear
6:15 AM 26.6 °F - 24.8 °F 93% 29.78 in 10.0 mi Calm Calm - N/A   Clear
6:35 AM 26.6 °F - 24.8 °F 93% 29.79 in 10.0 mi Calm Calm - N/A   Clear
6:55 AM 26.6 °F - 23.0 °F 86% 29.79 in 10.0 mi Calm Calm - N/A   Clear
7:15 AM 26.6 °F - 24.8 °F 93% 29.79 in 10.0 mi Calm Calm - N/A   Clear
7:35 AM 23.0 °F 18.4 °F 23.0 °F 100% 29.80 in 10.0 mi NE 3.5 mph - N/A   Clear
7:55 AM 26.6 °F - 23.0 °F 86% 29.80 in 10.0 mi Calm Calm - N/A   Clear
8:15 AM 24.8 °F - 23.0 °F 93% 29.79 in 10.0 mi Calm Calm - N/A   Clear
8:35 AM 26.6 °F - 24.8 °F 93% 29.80 in 7.0 mi Calm Calm - N/A   Clear
8:55 AM 28.4 °F - 26.6 °F 93% 29.80 in 5.0 mi Calm Calm - N/A   Clear
9:15 AM 28.4 °F - 26.6 °F 93% 29.81 in 5.0 mi Calm Calm - N/A   Clear
9:35 AM 30.2 °F - 28.4 °F 93% 29.81 in 7.0 mi Calm Calm - N/A   Clear
9:55 AM 32.0 °F - 30.2 °F 93% 29.81 in 10.0 mi Calm Calm - N/A   Clear
10:15 AM 35.6 °F - 26.6 °F 70% 29.81 in 10.0 mi Calm Calm - N/A   Clear
10:35 AM 37.4 °F 34.9 °F 28.4 °F 70% 29.81 in 10.0 mi SSE 3.5 mph - N/A   Clear
10:55 AM 39.2 °F - 28.4 °F 65% 29.81 in 10.0 mi Calm Calm - N/A   Clear
11:15 AM 41.0 °F - 28.4 °F 61% 29.81 in 10.0 mi Calm Calm - N/A   Clear
11:35 AM 41.0 °F - 28.4 °F 61% 29.80 in 10.0 mi Calm Calm - N/A   Clear
11:55 AM 44.6 °F - 28.4 °F 53% 29.80 in 10.0 mi Calm Calm - N/A   Clear
12:15 PM 44.6 °F 43.1 °F 28.4 °F 53% 29.79 in 10.0 mi South 3.5 mph - N/A   Clear
12:35 PM 44.6 °F - 28.4 °F 53% 29.79 in 10.0 mi Calm Calm - N/A   Clear
12:55 PM 46.4 °F 42.4 °F 28.4 °F 50% 29.77 in 10.0 mi WSW 8.1 mph - N/A   Clear
1:15 PM 48.2 °F - 28.4 °F 46% 29.76 in 10.0 mi SW 6.9 mph - N/A   Clear
1:35 PM 48.2 °F - 28.4 °F 46% 29.75 in 10.0 mi SW 4.6 mph - N/A   Clear
1:55 PM 50.0 °F - 28.4 °F 43% 29.71 in 10.0 mi ESE 4.6 mph - N/A   Clear
2:15 PM 48.2 °F - 30.2 °F 50% 29.70 in 10.0 mi SE 3.5 mph - N/A   Clear
2:35 PM 48.2 °F - 28.4 °F 46% 29.69 in 10.0 mi SE 5.8 mph - N/A   Clear
2:55 PM 46.4 °F 45.2 °F 28.4 °F 50% 29.68 in 10.0 mi SE 3.5 mph - N/A   Clear
3:15 PM 46.4 °F 45.2 °F 28.4 °F 50% 29.67 in 10.0 mi SE 3.5 mph - N/A   Clear
3:35 PM 46.4 °F - 28.4 °F 50% 29.69 in 10.0 mi Calm Calm - N/A   Clear
3:55 PM 44.6 °F 43.1 °F 28.4 °F 53% 29.69 in 10.0 mi SE 3.5 mph - N/A   Scattered Clouds
4:15 PM 44.6 °F 43.1 °F 28.4 °F 53% 29.70 in 10.0 mi SSE 3.5 mph - N/A   Overcast
4:35 PM 44.6 °F - 30.2 °F 57% 29.68 in 10.0 mi Calm Calm - N/A   Mostly Cloudy
4:55 PM 44.6 °F 42.2 °F 30.2 °F 57% 29.68 in 10.0 mi SE 4.6 mph - N/A   Scattered Clouds
5:15 PM 44.6 °F - 30.2 °F 57% 29.67 in 10.0 mi Calm Calm - N/A   Scattered Clouds
5:35 PM 44.6 °F - 28.4 °F 53% 29.65 in 10.0 mi Calm Calm - N/A   Overcast
5:55 PM 44.6 °F - 30.2 °F 57% 29.65 in 10.0 mi Calm Calm - N/A   Overcast
6:15 PM 44.6 °F 42.2 °F 30.2 °F 57% 29.64 in 10.0 mi SSE 4.6 mph - N/A   Overcast
6:35 PM 44.6 °F 41.4 °F 32.0 °F 61% 29.65 in 10.0 mi SE 5.8 mph - N/A   Overcast
6:55 PM 42.8 °F 38.0 °F 32.0 °F 66% 29.64 in 10.0 mi SSE 8.1 mph 16.1 mph N/A   Overcast
7:15 PM 42.8 °F 37.5 °F 33.8 °F 70% 29.65 in 7.0 mi SSW 9.2 mph - N/A   Overcast
7:35 PM 41.0 °F - 35.6 °F 81% 29.67 in 4.0 mi Calm Calm - N/A   Overcast
7:55 PM 39.2 °F 37.0 °F 35.6 °F 87% 29.68 in 3.0 mi SW 3.5 mph - N/A   Overcast
8:15 PM 37.4 °F - 33.8 °F 87% 29.68 in 2.0 mi Calm Calm - N/A   Overcast
8:35 PM 37.4 °F - 35.6 °F 93% 29.67 in 3.0 mi Calm Calm - N/A   Overcast
8:55 PM 37.4 °F - 35.6 °F 93% 29.67 in 3.0 mi Calm Calm - N/A   Overcast
9:15 PM 37.4 °F - 35.6 °F 93% 29.65 in 4.0 mi Calm Calm - N/A   Overcast
9:35 PM 37.4 °F 34.9 °F 33.8 °F 87% 29.64 in 7.0 mi SW 3.5 mph - N/A   Overcast
9:55 PM 39.2 °F - 35.6 °F 87% 29.63 in 7.0 mi Calm Calm - N/A   Overcast
10:15 PM 39.2 °F - 35.6 °F 87% 29.63 in 10.0 mi Calm Calm - N/A   Overcast
10:35 PM 39.2 °F 35.0 °F 35.6 °F 87% 29.62 in 10.0 mi SW 5.8 mph - N/A   Overcast
10:55 PM 39.2 °F - 35.6 °F 87% 29.61 in 10.0 mi Calm Calm - N/A   Overcast
11:15 PM 39.2 °F 35.9 °F 35.6 °F 87% 29.61 in 7.0 mi West 4.6 mph - N/A   Overcast
11:35 PM 39.2 °F 34.2 °F 35.6 °F 87% 29.60 in 7.0 mi West 6.9 mph - N/A   Overcast
11:55 PM 37.4 °F 33.8 °F 35.6 °F 93% 29.60 in 10.0 mi WNW 4.6 mph - N/A   Overcast